Weather History for Selinsgrove, PA

Change the Weather History Date:

Saturday, July 6, 2013

  Actual Average (KIPT) Record (KIPT)
Temperature  
Mean Temperature 81 °F 72 °F  
Max Temperature 91 °F 84 °F 101 °F (1988)
Min Temperature 71 °F 62 °F 47 °F (1979)
Degree Days  
Heating Degree Days 0 0  
Month to date heating degree days 0  
Since 1 June heating degree days 37  
Since 1 July heating degree days 0  
Cooling Degree Days 16 8  
Month to date cooling degree days 45  
Year to date cooling degree days 234  
Since 1 June cooling degree days 191  
Growing Degree Days 31 (Base 50)    
Moisture  
Dew Point 71 °F    
Average Humidity 73    
Maximum Humidity 93    
Minimum Humidity 50    
Precipitation  
Precipitation 0.00 in 0.13 in 3.09 in (1928)
Month to date precipitation 0.77  
Year to date precipitation 19.60  
Sea Level Pressure  
Sea Level Pressure 30.12 in    
Wind  
Wind Speed 1 mph (SSW)    
Max Wind Speed 5 mph    
Max Gust Speed -    
Visibility 9 miles    
Events      
T = Trace of Precipitation, MM = Missing Value Source: NWS Daily Summary

Daily Weather History Graph

Daily Weather History Graph

Search for Another Location

Airport:

Trip Planner

Search our weather history database for the weather conditions in past years. The results will help you decide how hot, cold, wet, or windy it might be!

Date:

Astronomy

Jul. 06, 2013 Rise Set
Actual Time 5:42 AM EDT 8:41 PM EDT
Civil Twilight 5:09 AM EDT 9:14 PM EDT
Nautical Twilight 4:27 AM EDT 9:56 PM EDT
Astronomical Twilight 3:38 AM EDT 10:45 PM EDT
Moon 4:27 AM EDT (7/6) 7:21 PM EDT (7/6)
Length of Visible Light 16h 05m
Length of Day
14h 59m
Waning Crescent, 2% of the Moon is Illuminated
Jul 6
Waning Crescent
Jul 8
New
Jul 15
First Quarter
Jul 22
Full
Jul 29
Last Quarter

Hourly Weather History & Observations

Time (EDT) Temp. Heat Index Dew Point Humidity Pressure Visibility Wind Dir Wind Speed Gust Speed Precip Events Conditions
12:53 AM 77.0 °F - 72.0 °F 84% 30.13 in 10.0 mi Calm Calm - N/A   Partly Cloudy
1:53 AM 75.0 °F - 72.0 °F 90% 30.14 in 10.0 mi Calm Calm - N/A   Clear
2:53 AM 73.9 °F - 71.1 °F 91% 30.15 in 10.0 mi Calm Calm - N/A   Clear
3:53 AM 73.0 °F - 70.0 °F 90% 30.14 in 10.0 mi Calm Calm - N/A   Clear
4:53 AM 72.0 °F - 70.0 °F 93% 30.15 in 6.0 mi Calm Calm - N/A   Clear
5:53 AM 71.1 °F - 69.1 °F 93% 30.15 in 4.0 mi Calm Calm - N/A   Clear
6:53 AM 73.0 °F - 71.1 °F 93% 30.17 in 5.0 mi Calm Calm - N/A   Clear
7:53 AM 75.9 °F - 72.0 °F 87% 30.18 in 10.0 mi Calm Calm - N/A   Clear
8:53 AM 79.0 °F - 72.0 °F 79% 30.17 in 10.0 mi Calm Calm - N/A   Clear
9:53 AM 82.0 °F 86.3 °F 71.1 °F 69% 30.17 in 10.0 mi Calm Calm - N/A   Partly Cloudy
10:53 AM 84.9 °F 90.7 °F 72.0 °F 65% 30.17 in 10.0 mi Variable 3.5 mph - N/A   Mostly Cloudy
11:13 AM 84.2 °F 89.6 °F 71.6 °F 66% 30.17 in 10.0 mi Calm Calm - N/A   Mostly Cloudy
11:53 AM 86.0 °F 90.7 °F 70.0 °F 59% 30.16 in 10.0 mi SSW 4.6 mph - N/A   Clear
12:53 PM 88.0 °F 92.9 °F 70.0 °F 55% 30.14 in 10.0 mi Variable 4.6 mph - N/A   Mostly Cloudy
1:53 PM 89.1 °F 94.1 °F 70.0 °F 53% 30.12 in 10.0 mi Variable 3.5 mph - N/A   Partly Cloudy
2:53 PM 90.0 °F 94.5 °F 69.1 °F 50% 30.11 in 10.0 mi Calm Calm - N/A   Partly Cloudy
3:53 PM 91.0 °F 96.6 °F 70.0 °F 50% 30.09 in 10.0 mi Variable 4.6 mph - N/A   Partly Cloudy
4:53 PM 90.0 °F 94.5 °F 69.1 °F 50% 30.07 in 10.0 mi Calm Calm - N/A   Clear
5:53 PM 90.0 °F 95.4 °F 70.0 °F 52% 30.06 in 10.0 mi SSW 3.5 mph - N/A   Clear
6:53 PM 89.1 °F 93.7 °F 69.1 °F 52% 30.04 in 10.0 mi SW 4.6 mph - N/A   Clear
7:53 PM 84.9 °F 91.4 °F 73.0 °F 67% 30.04 in 10.0 mi Calm Calm - N/A   Clear
8:53 PM 80.1 °F 84.5 °F 73.9 °F 81% 30.05 in 10.0 mi Calm Calm - N/A   Clear
9:53 PM 78.1 °F - 73.9 °F 87% 30.06 in 10.0 mi Calm Calm - N/A   Clear
10:53 PM 77.0 °F - 73.0 °F 88% 30.07 in 9.0 mi Calm Calm - N/A   Partly Cloudy
11:53 PM 75.9 °F - 73.0 °F 91% 30.08 in 4.0 mi Calm Calm - N/A   Clear